When you browse on this site, cookies collect data to enhance your experience and personalize the content and advertising you see.
Visit our Privacy Policy to learn more. By continuing to use the site, you agree to this use of cookies and data.
  • In Hungary
  • List of Countries
  • For 7 days
  • Water Temperature
  • Satellite Maps
  • Weather Map
  • News
  • Weather Widgets
  • user-avatar
    Login

    Hourly Weather Bethlehem

    Today, 18 June, Tuesday

    Time Temperature Precipitation Wind Pressure Humidity
    00:00 +18°C° 0 mm 0 mps 750 mmHg 95%
    01:00 +18°C° 0 mm 0 mps 749 mmHg 96%
    02:00 +18°C° 0 mm 0 mps 749 mmHg 96%
    03:00 +18°C° 0 mm 0 mps 749 mmHg 96%
    04:00 +18°C° 0 mm 0 mps 748 mmHg 96%
    05:00 +18°C° 0.2 mm 0 mps 748 mmHg 96%
    06:00 +19°C° 0.2 mm 0 mps 749 mmHg 96%
    07:00 +19°C° 0.2 mm 0 mps 749 mmHg 96%
    08:00 +22°C° 0.3 mm 1 mps 749 mmHg 95%
    09:00 +22°C° 0.3 mm 1 mps 748 mmHg 95%
    10:00 +23°C° 0.3 mm 1 mps 748 mmHg 94%
    11:00 +24°C° 1 mm 2 mps 748 mmHg 92%
    12:00 +25°C° 1 mm 2 mps 748 mmHg 90%
    13:00 +26°C° 1 mm 2 mps 748 mmHg 88%
    14:00 +25°C° 0.7 mm 2 mps 748 mmHg 90%
    15:00 +23°C° 0.7 mm 2 mps 747 mmHg 91%
    16:00 +21°C° 0.7 mm 2 mps 747 mmHg 92%
    17:00 +20°C° 0.2 mm 2 mps 747 mmHg 93%
    18:00 +21°C° 0.2 mm 1 mps 747 mmHg 94%
    19:00 +19°C° 0.2 mm 0 mps 748 mmHg 95%
    20:00 +19°C° 0.2 mm 0 mps 748 mmHg 95%
    21:00 +19°C° 0.2 mm 0 mps 748 mmHg 96%
    22:00 +19°C° 0.2 mm 0 mps 748 mmHg 97%
    23:00 +18°C° 0 mm 0 mps 747 mmHg 97%

    Tomorrow, 19 June, Wednesday

    Time Temperature Precipitation Wind Pressure Humidity
    00:00 +18°C° 0 mm 0 mps 747 mmHg 97%
    01:00 +20°C° 0 mm 1 mps 747 mmHg 97%
    02:00 +20°C° 0 mm 1 mps 747 mmHg 97%
    03:00 +20°C° 0 mm 1 mps 747 mmHg 98%
    04:00 +21°C° 0 mm 1 mps 747 mmHg 98%
    05:00 +19°C° 0 mm 0 mps 746 mmHg 97%
    06:00 +19°C° 0 mm 0 mps 746 mmHg 96%
    07:00 +20°C° 0 mm 0 mps 746 mmHg 94%
    08:00 +23°C° 0.1 mm 1 mps 746 mmHg 90%
    09:00 +24°C° 0.1 mm 1 mps 746 mmHg 85%
    10:00 +26°C° 0.1 mm 1 mps 746 mmHg 80%
    11:00 +26°C° 0.7 mm 2 mps 745 mmHg 81%
    12:00 +26°C° 0.7 mm 2 mps 745 mmHg 81%
    13:00 +27°C° 0.7 mm 3 mps 744 mmHg 82%
    14:00 +27°C° 1.4 mm 2 mps 744 mmHg 82%
    15:00 +27°C° 1.4 mm 2 mps 743 mmHg 83%
    16:00 +27°C° 1.4 mm 2 mps 743 mmHg 83%
    17:00 +26°C° 2 mm 2 mps 743 mmHg 86%
    18:00 +25°C° 2 mm 2 mps 743 mmHg 90%
    19:00 +24°C° 2 mm 2 mps 743 mmHg 93%
    20:00 +23°C° 0.8 mm 2 mps 743 mmHg 94%
    21:00 +23°C° 0.8 mm 1 mps 743 mmHg 95%
    22:00 +22°C° 0.8 mm 1 mps 743 mmHg 96%
    23:00 +22°C° 0.3 mm 1 mps 742 mmHg 97%

    Day after tomorrow, 20 June, Thursday

    Time Temperature Precipitation Wind Pressure Humidity
    00:00 +22°C° 0.3 mm 1 mps 742 mmHg 97%
    01:00 +22°C° 0.3 mm 1 mps 742 mmHg 98%
    02:00 +22°C° 0 mm 1 mps 741 mmHg 98%
    03:00 +22°C° 0 mm 1 mps 741 mmHg 98%
    04:00 +20°C° 0 mm 0 mps 741 mmHg 98%
    05:00 +23°C° 0.1 mm 1 mps 741 mmHg 97%
    06:00 +23°C° 0.1 mm 1 mps 741 mmHg 96%
    07:00 +24°C° 0.1 mm 2 mps 741 mmHg 96%
    08:00 +24°C° 0.2 mm 2 mps 741 mmHg 93%
    09:00 +25°C° 0.2 mm 2 mps 741 mmHg 91%
    10:00 +26°C° 0.2 mm 2 mps 741 mmHg 88%
    11:00 +27°C° 0.5 mm 2 mps 740 mmHg 85%
    12:00 +28°C° 0.5 mm 3 mps 740 mmHg 81%
    13:00 +29°C° 0.5 mm 3 mps 739 mmHg 78%
    14:00 +29°C° 0.7 mm 3 mps 739 mmHg 79%
    15:00 +29°C° 0.7 mm 4 mps 739 mmHg 79%
    16:00 +29°C° 0.7 mm 4 mps 738 mmHg 79%
    17:00 +27°C° 0.9 mm 3 mps 738 mmHg 82%
    18:00 +26°C° 0.9 mm 3 mps 738 mmHg 85%
    19:00 +25°C° 0.9 mm 2 mps 738 mmHg 89%
    20:00 +24°C° 0.9 mm 2 mps 738 mmHg 90%
    21:00 +24°C° 0.9 mm 2 mps 738 mmHg 92%
    22:00 +23°C° 0.9 mm 2 mps 738 mmHg 94%
    23:00 +23°C° 2.2 mm 2 mps 738 mmHg 95%

    21 June, Friday

    Time Temperature Precipitation Wind Pressure Humidity
    00:00 +22°C° 2.2 mm 1 mps 737 mmHg 95%
    01:00 +22°C° 2.2 mm 1 mps 737 mmHg 96%
    02:00 +21°C° 0.2 mm 1 mps 737 mmHg 96%
    03:00 +21°C° 0.2 mm 1 mps 737 mmHg 96%
    04:00 +21°C° 0.2 mm 1 mps 737 mmHg 96%
    05:00 +20°C° 0.9 mm 2 mps 737 mmHg 96%
    06:00 +20°C° 0.9 mm 3 mps 738 mmHg 95%
    07:00 +20°C° 0.9 mm 4 mps 739 mmHg 95%
    08:00 +20°C° 0.2 mm 5 mps 739 mmHg 92%
    09:00 +20°C° 0.2 mm 5 mps 740 mmHg 90%
    10:00 +20°C° 0.2 mm 6 mps 741 mmHg 87%
    11:00 +20°C° 0 mm 6 mps 742 mmHg 80%
    12:00 +21°C° 0 mm 6 mps 743 mmHg 74%
    13:00 +21°C° 0 mm 6 mps 743 mmHg 67%
    14:00 +22°C° 0 mm 6 mps 744 mmHg 63%
    15:00 +23°C° 0 mm 6 mps 745 mmHg 59%
    16:00 +24°C° 0 mm 6 mps 745 mmHg 55%
    17:00 +22°C° 0 mm 5 mps 746 mmHg 58%
    18:00 +20°C° 0 mm 5 mps 746 mmHg 61%
    19:00 +18°C° 0 mm 4 mps 747 mmHg 65%
    20:00 +17°C° 0 mm 4 mps 747 mmHg 65%
    21:00 +15°C° 0 mm 4 mps 748 mmHg 66%
    22:00 +14°C° 0 mm 3 mps 749 mmHg 67%
    23:00 +14°C° 0 mm 3 mps 749 mmHg 69%

    22 June, Saturday

    Time Temperature Precipitation Wind Pressure Humidity
    00:00 +14°C° 0 mm 3 mps 749 mmHg 70%
    01:00 +14°C° 0 mm 3 mps 749 mmHg 72%
    02:00 +14°C° 0 mm 3 mps 749 mmHg 72%
    03:00 +13°C° 0 mm 3 mps 749 mmHg 71%
    04:00 +13°C° 0 mm 3 mps 749 mmHg 71%
    05:00 +14°C° 0 mm 3 mps 749 mmHg 71%
    06:00 +17°C° 0 mm 3 mps 750 mmHg 70%
    07:00 +18°C° 0 mm 4 mps 750 mmHg 70%
    08:00 +19°C° 0 mm 4 mps 750 mmHg 64%
    09:00 +21°C° 0 mm 4 mps 750 mmHg 58%
    10:00 +23°C° 0 mm 5 mps 750 mmHg 53%
    11:00 +25°C° 0 mm 5 mps 750 mmHg 51%
    12:00 +26°C° 0 mm 5 mps 750 mmHg 49%
    13:00 +27°C° 0 mm 5 mps 750 mmHg 48%
    14:00 +27°C° 0 mm 4 mps 750 mmHg 50%
    15:00 +27°C° 0 mm 4 mps 750 mmHg 52%
    16:00 +27°C° 0 mm 4 mps 749 mmHg 54%
    17:00 +25°C° 0 mm 4 mps 750 mmHg 59%
    18:00 +22°C° 0 mm 3 mps 750 mmHg 63%
    19:00 +20°C° 0 mm 3 mps 750 mmHg 68%
    20:00 +19°C° 0 mm 3 mps 750 mmHg 68%
    21:00 +18°C° 0 mm 3 mps 750 mmHg 68%
    22:00 +16°C° 0 mm 3 mps 751 mmHg 67%
    23:00 +16°C° 0 mm 2 mps 751 mmHg 70%

    23 June, Sunday

    Time Temperature Precipitation Wind Pressure Humidity
    00:00 +15°C° 0 mm 2 mps 751 mmHg 72%
    01:00 +15°C° 0 mm 2 mps 751 mmHg 75%
    02:00 +14°C° 0 mm 2 mps 751 mmHg 77%
    03:00 +14°C° 0 mm 2 mps 751 mmHg 78%
    04:00 +14°C° 0 mm 1 mps 751 mmHg 80%
    05:00 +15°C° 0 mm 1 mps 751 mmHg 77%
    06:00 +18°C° 0 mm 1 mps 751 mmHg 75%
    07:00 +19°C° 0 mm 1 mps 751 mmHg 72%
    08:00 +21°C° 0 mm 1 mps 751 mmHg 66%
    09:00 +24°C° 0 mm 1 mps 751 mmHg 59%
    10:00 +26°C° 0 mm 1 mps 751 mmHg 52%
    11:00 +27°C° 0 mm 1 mps 751 mmHg 50%
    12:00 +27°C° 0 mm 2 mps 750 mmHg 48%
    13:00 +28°C° 0 mm 2 mps 750 mmHg 46%
    14:00 +28°C° 0 mm 2 mps 750 mmHg 49%
    15:00 +28°C° 0 mm 2 mps 749 mmHg 52%
    16:00 +28°C° 0 mm 3 mps 749 mmHg 55%
    17:00 +26°C° 0 mm 2 mps 749 mmHg 62%
    18:00 +24°C° 0 mm 2 mps 749 mmHg 69%
    19:00 +23°C° 0 mm 2 mps 749 mmHg 76%
    20:00 +20°C° 0 mm 2 mps 749 mmHg 77%
    21:00 +20°C° 0 mm 1 mps 749 mmHg 79%
    22:00 +19°C° 0 mm 1 mps 749 mmHg 80%
    23:00 +18°C° 0 mm 1 mps 748 mmHg 82%
    Show more